Location: Peterborough
(44.3091°N, 78.3197°W)
Time: 18:48:17
(UTC-04:00)

Vanguard 3 - Pass Details

Date: 28 March 2023
Orbit: 507 x 3246 km, 33.4° (Epoch: 05 June)

Event Time Altitude Azimuth Distance (km) Brightness Sun altitude
Exits shadow 05:12:52 24° 241° (WSW) 5,002 10.5 -19.7°
Maximum altitude 05:26:28 58° 176° (S) 3,524 10.2 -17.4°
Drops below altitude 10° 05:42:54 10° 103° (ESE) 5,255 12.2 -14.7°
Sets 05:46:26 0° 100° (E) 5,973 12.7 -14.1°
